Date,TemperatureHighF,TemperatureAvgF,TemperatureLowF,DewpointHighF,DewpointAvgF,DewpointLowF,HumidityHigh,HumidityAvg,HumidityLow,PressureMaxIn,PressureMinIn,WindSpeedMaxMPH,WindSpeedAvgMPH,GustSpeedMaxMPH,PrecipitationSumIn
2013-1-1,31,20,12,19,12,2,94,73,41,30.41,30.26,5,0,7,0.00
2013-1-2,30,23,17,15,9,3,70,55,43,30.48,30.32,9,2,11,0.00
2013-1-3,40,24,13,13,7,2,65,49,29,30.50,30.37,5,0,7,0.00
2013-1-4,48,32,22,21,13,5,65,46,30,30.38,30.10,6,1,7,0.00
2013-1-5,38,30,22,22,15,10,72,55,43,30.38,30.12,9,2,13,0.00
2013-1-6,43,32,22,20,12,1,57,43,25,30.37,30.00,6,2,9,0.00
2013-1-7,52,40,30,23,17,11,67,40,26,30.03,29.77,8,2,13,0.00
2013-1-8,48,44,34,24,21,11,56,41,25,30.17,29.74,32,11,46,0.00
2013-1-9,56,40,29,29,22,18,67,52,35,30.30,30.00,9,1,10,0.00
2013-1-10,48,34,25,26,21,17,71,58,30,29.98,29.45,7,1,13,0.00
2013-1-11,40,27,8,27,16,5,97,68,27,29.88,29.28,29,6,38,0.00
2013-1-12,14,8,2,11,6,0,95,92,85,30.36,29.89,8,2,14,0.00
2013-1-13,13,6,0,9,3,-2,94,87,76,30.50,30.35,3,0,9,0.00
2013-1-14,13,6,0,6,2,-4,93,81,71,30.53,30.41,5,1,7,0.00
2013-1-15,32,18,1,21,9,-4,83,68,49,30.49,30.36,3,0,9,0.00
2013-1-16,54,38,27,29,23,18,71,57,36,30.38,30.24,10,1,11,0.00
2013-1-17,50,35,26,27,22,17,75,59,35,30.48,30.26,7,1,9,0.00
2013-1-18,56,46,31,21,15,11,64,31,20,30.25,29.94,36,10,47,0.00
2013-1-19,58,47,34,19,14,8,43,27,20,30.13,29.98,23,6,37,0.00
2013-1-20,48,34,21,20,16,12,78,48,28,30.30,30.05,15,4,18,0.00
2013-1-21,54,38,18,25,16,8,88,50,17,30.30,30.05,37,8,46,0.00
2013-1-22,60,50,39,24,12,3,33,22,13,30.04,29.92,35,8,51,0.00
2013-1-23,66,53,37,17,11,3,39,20,12,30.08,29.96,24,6,30,0.00
2013-1-24,62,51,26,31,21,4,57,33,16,29.99,29.81,34,12,47,0.00
2013-1-25,52,42,34,32,29,25,72,59,46,30.05,29.96,11,2,18,0.00
2013-1-26,51,43,35,38,31,23,93,64,47,30.02,29.68,6,1,12,0.01
2013-1-27,55,43,36,40,33,22,94,70,38,29.73,29.64,7,2,13,0.00
2013-1-28,47,35,23,33,26,19,100,73,49,29.75,29.49,15,3,18,0.00
2013-1-29,30,22,14,23,17,4,100,83,62,30.12,29.74,14,2,24,0.14
2013-1-30,39,27,12,23,13,2,83,57,38,30.12,29.98,26,7,36,0.01
2013-1-31,46,36,23,28,22,19,89,62,39,30.15,29.96,29,7,39,0.00
2013-2-1,48,36,22,28,22,18,95,61,37,30.21,30.07,23,6,37,0.00
2013-2-2,57,38,24,30,23,19,82,57,25,30.32,30.21,12,3,17,0.00
2013-2-3,46,37,27,25,18,9,66,48,25,30.27,29.89,12,2,18,0.00
2013-2-4,53,43,29,22,16,10,52,35,23,29.98,29.79,24,8,34,0.00
2013-2-5,57,46,32,29,22,17,58,41,30,29.98,29.74,34,4,41,0.00
2013-2-6,52,42,33,36,28,22,96,59,36,30.03,29.72,21,4,29,0.00
2013-2-7,48,36,25,32,23,16,96,64,34,30.16,30.03,11,3,15,0.00
2013-2-8,51,34,24,20,14,11,68,46,23,30.04,29.74,10,2,12,0.00
2013-2-9,37,30,24,29,22,13,100,73,45,29.74,29.57,9,2,14,0.00
2013-2-10,35,27,18,24,18,13,95,72,44,30.18,29.64,11,2,19,0.00
2013-2-11,26,20,16,21,17,14,96,87,73,30.23,30.14,9,2,12,0.03
2013-2-12,42,28,14,18,9,4,83,50,22,30.25,30.14,12,3,14,0.00
2013-2-13,48,35,21,20,15,8,61,45,32,30.16,29.98,22,7,34,0.00
2013-2-14,34,26,20,25,20,17,97,82,54,30.41,30.03,17,4,25,0.00
2013-2-15,42,27,15,26,18,12,91,71,33,30.47,30.33,20,3,27,0.02
2013-2-16,56,45,20,24,18,15,86,37,26,30.33,29.89,35,12,46,0.00
2013-2-17,59,48,32,21,14,7,59,27,15,29.89,29.42,30,10,44,0.00
2013-2-18,39,30,21,22,13,6,83,53,27,30.18,29.62,18,5,26,0.00
2013-2-19,40,28,19,18,12,7,73,54,35,30.19,29.91,8,2,14,0.00
2013-2-20,36,24,16,27,19,14,99,82,53,29.92,29.74,9,4,12,0.00
2013-2-21,30,20,13,30,20,12,99,98,96,30.08,29.86,4,1,7,0.21
2013-2-22,32,24,15,30,20,8,98,88,41,30.13,29.97,26,2,39,0.00
2013-2-23,40,27,16,28,19,8,99,71,42,29.97,29.74,19,3,20,0.00
2013-2-24,28,26,22,28,26,22,100,99,97,30.23,29.83,23,4,23,0.03
2013-2-25,39,23,12,27,19,10,98,86,60,30.25,29.99,5,1,7,0.05
2013-2-26,34,27,18,30,21,15,99,80,56,30.26,29.95,23,4,23,0.87
2013-2-27,43,26,18,18,14,8,79,62,34,30.38,30.27,8,1,9,0.00
2013-2-28,39,31,18,22,14,5,68,49,35,30.40,30.28,12,3,20,0.00
2013-3-1,43,35,25,29,22,14,74,60,41,30.39,30.30,4,1,11,0.00
2013-3-2,54,45,34,37,30,24,68,57,37,30.35,29.96,13,2,19,0.00
2013-3-3,60,53,45,32,29,25,53,40,30,29.95,29.45,32,9,48,0.00
2013-3-4,49,31,20,31,24,11,98,79,46,30.29,29.46,35,5,38,0.06
2013-3-5,37,25,13,23,18,10,90,75,56,30.45,30.29,7,1,10,0.00
2013-3-6,56,38,24,36,28,20,90,72,40,30.30,29.87,7,1,12,0.00
2013-3-7,62,47,35,37,31,26,77,57,30,29.93,29.82,9,2,15,0.00
2013-3-8,43,36,29,35,31,24,93,80,63,29.88,29.67,7,1,9,0.00
2013-3-9,36,32,24,34,30,17,100,92,61,30.16,29.64,15,4,24,0.26
2013-3-10,46,33,18,28,21,13,83,63,41,30.25,30.07,10,2,21,0.03
2013-3-11,52,42,28,32,25,20,100,54,37,30.10,29.82,31,12,43,0.00
2013-3-12,38,28,23,29,27,23,100,93,69,30.37,30.10,8,2,11,0.21
2013-3-13,62,43,26,42,31,25,99,68,31,30.38,30.20,15,3,27,0.00
2013-3-14,69,58,44,37,30,26,56,36,22,30.20,29.93,20,5,26,0.00
2013-3-15,73,64,54,35,32,28,45,31,22,29.92,29.60,29,10,34,0.00
2013-3-16,59,46,38,37,34,29,78,65,39,29.79,29.63,14,4,24,0.00
2013-3-17,56,44,34,32,26,11,75,52,30,29.76,29.45,27,8,43,0.00
2013-3-18,47,40,32,20,15,8,42,36,28,29.91,29.77,27,10,42,0.00
2013-3-19,54,43,25,19,10,3,78,29,16,30.31,29.90,22,8,33,0.00
2013-3-20,50,36,20,30,23,16,87,62,40,30.30,29.76,15,3,22,0.00
2013-3-21,55,46,36,38,25,10,77,46,28,29.76,29.42,22,7,33,0.00
2013-3-22,42,31,25,31,22,13,100,71,39,29.99,29.71,17,5,21,0.00
2013-3-23,25,19,14,25,18,11,100,97,85,30.39,29.98,13,5,21,0.12
2013-3-24,29,18,6,27,16,5,98,93,82,30.47,30.33,8,2,9,0.05
2013-3-25,34,22,11,27,18,10,98,85,70,30.50,30.38,8,2,12,0.00
2013-3-26,41,31,18,32,24,15,88,76,54,30.37,30.04,7,2,8,0.00
2013-3-27,52,41,31,40,34,27,91,77,60,30.13,30.04,10,1,12,0.00
2013-3-28,58,45,34,40,35,31,93,70,43,30.08,30.01,9,1,14,0.00
2013-3-29,63,51,41,38,34,32,73,55,35,30.05,29.93,20,3,25,0.00
2013-3-30,64,49,39,40,36,31,97,63,32,30.12,29.88,24,4,33,0.00
2013-3-31,67,50,35,40,34,29,94,60,30,30.10,29.83,14,4,19,0.00
2013-4-1,49,39,28,38,33,26,95,79,56,30.10,29.97,13,3,15,0.02
2013-4-2,38,37,34,38,36,33,100,95,89,30.15,30.05,11,3,15,0.29
2013-4-3,61,47,36,43,37,33,100,73,45,30.16,29.99,17,4,22,0.00
2013-4-4,68,55,40,42,37,32,85,53,31,30.06,29.83,9,2,15,0.00
2013-4-5,72,59,49,40,34,29,70,41,26,29.81,29.47,17,6,40,0.00
2013-4-6,62,53,43,35,31,26,58,43,30,29.75,29.62,16,5,27,0.00
2013-4-7,62,53,40,39,33,30,83,50,32,29.69,29.50,26,8,36,0.00
2013-4-8,60,46,28,39,34,28,100,66,42,29.71,29.25,29,7,38,0.04
2013-4-9,27,18,12,27,17,11,100,97,92,30.41,29.70,16,6,19,0.04
2013-4-10,26,17,7,26,16,5,99,97,94,30.42,30.12,8,2,12,0.11
2013-4-11,52,35,17,46,31,17,100,87,53,30.11,29.89,11,2,15,0.03
2013-4-12,56,42,35,38,35,32,92,76,47,29.95,29.82,22,4,28,0.00
2013-4-13,63,49,30,41,34,29,99,62,29,29.91,29.32,17,4,34,0.07
2013-4-14,46,41,35,40,21,10,92,48,26,29.69,29.37,30,12,54,0.10
2013-4-15,38,28,22,32,25,19,100,90,46,30.12,29.68,14,3,18,0.23
2013-4-16,32,27,21,31,26,21,100,97,90,30.14,30.00,12,4,18,0.13
2013-4-17,30,26,18,30,26,18,100,99,96,30.30,30.03,11,3,13,0.07
2013-4-18,36,25,12,25,18,10,99,78,55,30.33,30.25,11,2,16,0.23
2013-4-19,50,39,25,32,24,15,75,55,43,30.28,29.95,21,5,26,0.00
2013-4-20,53,44,34,39,34,28,83,68,53,29.97,29.86,9,2,12,0.00
2013-4-21,59,49,36,38,31,27,91,54,32,30.00,29.86,20,6,28,0.00
2013-4-22,48,33,21,41,29,21,100,88,49,30.35,29.76,14,4,22,0.03
2013-4-23,31,24,17,31,23,17,100,96,80,30.42,30.30,10,2,11,0.95
2013-4-24,51,35,22,45,27,18,100,79,34,30.33,30.23,7,2,12,0.00
2013-4-25,59,46,34,35,25,16,57,46,29,30.23,29.87,5,2,10,0.00
2013-4-26,64,54,41,37,29,25,61,40,26,30.09,29.94,10,4,17,0.00
2013-4-27,74,62,45,35,30,22,54,31,21,30.06,29.81,14,6,22,0.00
2013-4-28,76,68,58,40,34,27,47,29,24,29.80,29.54,21,7,29,0.00
2013-4-29,77,65,47,43,37,32,71,38,22,29.65,29.32,17,6,28,0.00
2013-4-30,69,50,34,43,38,31,98,67,27,29.88,29.32,20,4,22,0.24
2013-5-1,34,29,23,34,29,23,100,100,98,30.75,29.90,12,2,16,0.37
2013-5-2,48,33,18,32,25,17,100,77,33,30.86,30.51,7,1,8,0.23
2013-5-3,57,44,28,39,31,25,88,62,41,30.50,30.07,6,1,12,0.00
2013-5-4,56,46,36,39,34,29,79,63,45,30.17,30.02,10,2,13,0.00
2013-5-5,55,45,35,41,33,27,79,63,45,30.17,30.03,10,3,17,0.00
2013-5-6,62,52,39,43,39,34,87,63,42,30.03,29.78,10,2,15,0.00
2013-5-7,67,54,44,48,43,37,91,68,42,29.86,29.71,12,4,14,0.16
2013-5-8,60,50,45,49,44,39,94,79,51,29.98,29.78,15,5,25,0.35
2013-5-9,58,50,44,48,44,41,91,79,55,30.09,29.95,20,4,34,0.12
2013-5-10,65,54,40,48,42,38,92,66,45,30.18,30.07,11,4,19,0.00
2013-5-11,67,56,45,49,43,38,83,64,44,30.25,30.04,13,4,21,0.00
2013-5-12,76,65,50,51,43,38,67,45,33,30.08,29.84,15,5,25,0.00
2013-5-13,82,74,65,56,46,40,54,38,30,29.85,29.67,17,7,23,0.00
2013-5-14,85,73,65,54,46,41,48,38,29,29.68,29.57,18,5,30,0.00
2013-5-15,77,66,55,56,48,40,84,54,35,29.70,29.56,15,4,27,0.00
2013-5-16,78,65,52,54,48,43,84,57,30,29.67,29.54,27,4,41,0.00
2013-5-17,83,69,51,55,46,31,81,49,22,29.63,29.43,22,6,29,0.00
2013-5-18,72,66,54,49,39,29,63,39,21,29.58,29.43,25,8,37,0.00
2013-5-19,68,60,51,44,36,34,60,42,31,29.62,29.51,16,7,28,0.00
2013-5-20,64,55,47,49,44,35,96,70,52,29.84,29.62,12,3,16,0.02
2013-5-21,67,55,42,44,40,36,94,61,35,29.90,29.71,14,3,19,0.00
2013-5-22,72,58,44,52,43,36,90,62,39,29.89,29.70,14,3,17,0.04
2013-5-23,67,55,47,54,50,46,100,83,64,29.91,29.76,11,3,13,0.00
2013-5-24,80,62,46,56,50,45,98,68,32,29.82,29.68,9,2,13,0.00
2013-5-25,83,69,54,57,51,41,88,55,24,29.75,29.54,9,3,13,0.00
2013-5-26,82,70,56,49,40,32,56,34,21,29.61,29.52,21,4,24,0.00
2013-5-27,82,68,52,47,38,28,56,35,20,29.56,29.41,15,4,22,0.00
2013-5-28,78,64,49,52,44,36,71,50,28,29.55,29.27,14,3,21,0.00
2013-5-29,62,55,47,52,46,35,98,73,43,29.54,29.35,22,4,28,0.10
2013-5-30,67,59,52,36,34,28,50,39,27,29.66,29.48,31,8,37,0.00
2013-5-31,68,60,47,33,29,25,54,31,23,29.81,29.62,24,10,37,0.00
2013-6-1,68,57,46,46,41,36,74,56,42,30.04,29.82,11,2,16,0.00
2013-6-2,82,63,44,52,42,34,70,49,29,30.04,29.58,10,2,13,0.00
2013-6-3,88,73,54,52,41,33,51,34,21,29.60,29.41,26,6,37,0.00
2013-6-4,68,59,50,55,47,32,94,67,36,30.02,29.60,20,4,28,0.13
2013-6-5,58,50,46,51,48,43,98,89,77,30.06,29.99,8,2,9,0.00
2013-6-6,78,62,47,53,47,43,92,62,34,30.03,29.84,10,2,14,0.00
2013-6-7,78,64,50,55,48,42,81,57,39,29.91,29.53,9,3,19,0.00
2013-6-8,74,67,57,54,48,42,69,52,38,29.77,29.46,14,3,24,0.00
2013-6-9,87,70,50,56,48,42,82,49,27,29.80,29.62,12,3,19,0.00
2013-6-10,95,80,64,57,49,40,52,34,19,29.62,29.43,11,3,17,0.00
2013-6-11,95,80,60,54,43,36,53,29,14,29.57,29.38,28,6,29,0.00
2013-6-12,90,76,59,56,44,33,63,34,24,29.75,29.59,17,4,20,0.00
2013-6-13,84,67,55,62,57,51,97,72,44,29.78,29.59,9,2,13,0.00
2013-6-14,89,73,59,58,50,42,69,46,24,29.68,29.53,15,4,19,0.00
2013-6-15,79,69,56,57,52,48,77,57,43,29.78,29.63,11,4,18,0.00
2013-6-16,77,68,56,60,51,43,86,59,32,29.87,29.74,23,5,34,0.00
2013-6-17,79,66,51,60,51,42,84,61,44,29.91,29.76,12,3,16,0.01
2013-6-18,82,67,52,58,54,50,96,66,36,29.88,29.61,10,2,14,0.00
2013-6-19,92,72,52,57,48,31,90,50,15,29.73,29.36,13,3,23,0.00
2013-6-20,88,74,57,53,42,29,54,33,19,29.57,29.42,12,4,17,0.00
2013-6-21,90,75,58,60,50,37,68,45,18,29.58,29.42,11,3,18,0.00
2013-6-22,86,69,53,57,50,41,77,53,21,29.62,29.42,11,3,23,0.00
2013-6-23,81,67,54,55,50,42,78,57,38,29.75,29.53,10,4,22,0.00
2013-6-24,86,75,58,55,47,35,76,42,20,29.65,29.41,26,5,31,0.00
2013-6-25,89,78,66,50,44,35,42,30,23,29.63,29.45,18,6,28,0.00
2013-6-26,94,80,61,57,48,41,49,33,23,29.72,29.61,11,3,19,0.00
2013-6-27,94,83,70,56,50,42,48,32,23,29.83,29.68,11,4,16,0.00
2013-6-28,90,76,62,65,57,48,93,54,38,29.91,29.73,16,4,40,0.42
2013-6-29,82,71,60,64,59,55,86,68,46,29.89,29.78,7,2,10,0.00
2013-6-30,78,68,62,63,59,56,89,73,52,29.92,29.84,12,3,16,0.01
2013-7-1,77,67,56,60,57,53,93,71,51,30.03,29.91,11,3,15,0.00
2013-7-2,81,68,54,58,55,50,89,65,41,30.00,29.84,11,2,14,0.00
2013-7-3,86,73,56,56,52,48,77,50,35,29.85,29.60,12,4,19,0.00
2013-7-4,88,77,61,58,52,46,62,42,33,29.64,29.52,15,4,21,0.00
2013-7-5,82,73,65,62,56,51,69,56,44,29.56,29.47,17,3,19,0.01
2013-7-6,90,77,64,60,55,50,69,49,31,29.61,29.51,32,7,49,0.04
2013-7-7,88,74,64,65,58,52,72,58,38,29.70,29.58,19,4,32,0.11
2013-7-8,89,75,61,62,58,49,92,58,29,29.74,29.66,23,4,33,0.01
2013-7-9,92,80,69,61,52,47,48,39,25,29.82,29.71,11,3,27,0.00
2013-7-10,89,75,60,63,57,49,76,56,31,29.85,29.65,11,3,16,0.00
2013-7-11,97,78,61,64,58,54,81,54,24,29.75,29.45,13,3,19,0.00
2013-7-12,89,76,66,64,57,52,91,54,38,29.70,29.49,17,4,31,0.12
2013-7-13,87,72,64,65,62,58,92,71,46,29.86,29.70,16,2,25,0.01
2013-7-14,79,69,59,65,61,55,91,75,54,29.93,29.77,10,3,16,0.00
2013-7-15,77,68,62,67,63,57,100,85,63,29.90,29.79,12,2,23,0.22
2013-7-16,83,69,54,58,55,53,97,66,38,29.94,29.84,10,2,19,0.00
2013-7-17,89,72,56,62,57,52,89,61,37,29.94,29.76,8,2,15,0.00
2013-7-18,90,74,63,61,58,55,75,57,37,29.83,29.69,22,6,29,0.00
2013-7-19,81,73,63,64,60,56,86,65,44,29.84,29.74,15,4,29,0.00
2013-7-20,86,70,59,70,58,54,88,68,42,29.75,29.62,23,3,30,0.13
2013-7-21,86,71,56,65,58,45,93,67,38,29.69,29.57,10,3,17,0.00
2013-7-22,91,79,63,64,53,39,54,41,22,29.66,29.54,13,3,18,0.00
2013-7-23,87,77,68,63,51,32,73,43,19,29.79,29.55,9,3,15,0.00
2013-7-24,80,72,61,65,58,52,84,65,40,29.90,29.69,14,4,22,0.01
2013-7-25,75,65,57,62,57,54,95,78,52,30.00,29.77,9,2,19,0.14
2013-7-26,85,70,59,60,55,50,83,61,32,30.02,29.84,9,2,21,0.00
2013-7-27,74,66,56,63,57,49,98,74,60,29.87,29.77,11,3,16,0.06
2013-7-28,72,62,58,65,60,58,100,94,71,29.86,29.69,9,2,12,0.05
2013-7-29,76,63,57,64,58,53,100,85,50,29.95,29.71,18,2,22,0.22
2013-7-30,86,71,59,60,57,53,84,62,34,29.98,29.85,10,2,15,0.00
2013-7-31,89,73,59,60,56,53,84,58,32,30.02,29.81,12,3,24,0.00
2013-8-1,86,72,59,63,57,53,88,62,36,29.89,29.64,11,2,20,0.00
2013-8-2,91,76,59,61,56,50,80,52,31,29.69,29.61,11,3,17,0.00
2013-8-3,89,71,60,67,59,55,100,70,36,29.95,29.66,18,3,29,0.94
2013-8-4,86,72,57,64,57,53,88,62,37,29.88,29.76,11,2,16,0.00
2013-8-5,85,71,63,61,56,49,90,61,38,29.76,29.69,16,3,19,0.11
2013-8-6,81,71,61,61,53,48,75,55,35,29.75,29.67,23,3,31,0.00
2013-8-7,74,66,58,59,56,49,89,72,53,29.81,29.72,11,2,13,0.00
2013-8-8,73,63,54,61,57,52,96,82,63,29.94,29.77,14,2,15,0.02
2013-8-9,76,65,54,57,54,50,93,69,46,29.96,29.89,17,3,22,0.00
2013-8-10,84,68,53,59,52,47,81,58,36,29.99,29.82,10,2,15,0.00
2013-8-11,80,70,60,58,53,48,86,58,39,29.89,29.81,12,3,16,0.08
2013-8-12,80,67,55,60,55,50,91,68,39,30.01,29.84,13,3,22,0.00
2013-8-13,76,66,54,56,52,49,84,62,44,29.97,29.86,14,4,24,0.00
2013-8-14,80,66,52,59,52,48,92,65,39,29.97,29.82,9,2,27,0.02
2013-8-15,84,68,56,58,51,44,72,56,36,29.91,29.81,9,2,11,0.00
2013-8-16,90,74,57,56,51,46,75,47,24,29.90,29.77,8,2,11,0.00
2013-8-17,92,76,58,58,49,42,70,43,19,29.82,29.65,8,2,11,0.00
2013-8-18,91,75,60,61,50,41,59,43,28,29.79,29.69,10,2,17,0.00
2013-8-19,93,77,61,59,51,45,62,41,25,29.78,29.63,9,2,17,0.00
2013-8-20,96,80,64,61,50,44,51,36,20,29.67,29.56,15,3,15,0.00
2013-8-21,88,77,68,59,53,46,62,44,33,29.79,29.64,12,4,17,0.00
2013-8-22,80,70,61,65,58,54,89,66,48,29.89,29.78,13,2,15,0.15
2013-8-23,81,71,60,63,58,52,92,66,41,29.88,29.66,13,3,29,0.01
2013-8-24,85,73,59,59,55,51,78,55,38,29.78,29.67,18,4,22,0.03
2013-8-25,87,74,62,59,55,50,72,53,34,29.81,29.72,18,3,23,0.00
2013-8-26,88,74,63,62,58,54,84,58,39,29.79,29.72,17,5,27,0.14
2013-8-27,90,77,64,64,59,55,86,57,38,29.80,29.66,11,2,14,0.00
2013-8-28,90,78,66,60,56,50,67,48,35,29.75,29.67,16,3,26,0.00
2013-8-29,92,80,68,58,54,49,55,41,29,29.78,29.71,14,4,24,0.00
2013-8-30,90,78,65,59,55,50,62,46,33,29.80,29.69,17,3,20,0.00
2013-8-31,91,75,64,62,54,50,66,49,31,29.79,29.67,27,5,30,0.00
2013-9-1,78,70,60,62,59,52,90,69,48,29.87,29.77,13,2,15,0.01
2013-9-2,88,73,59,63,58,51,89,61,34,29.86,29.69,7,2,12,0.00
2013-9-3,93,78,64,62,57,51,77,49,31,29.76,29.66,15,4,20,0.22
2013-9-4,88,76,65,64,58,55,75,55,35,29.83,29.73,19,3,27,0.00
2013-9-5,90,75,62,62,57,54,80,55,36,29.86,29.76,9,2,11,0.00
2013-9-6,93,79,68,61,55,52,60,46,29,29.79,29.65,16,4,28,0.00
2013-9-7,90,77,62,59,54,50,65,46,31,29.75,29.62,12,3,14,0.00
2013-9-8,86,74,62,58,52,49,62,47,36,29.68,29.52,20,3,25,0.00
2013-9-9,82,68,58,62,57,52,100,71,43,29.77,29.55,15,4,28,0.83
2013-9-10,64,60,57,61,59,57,100,98,88,30.00,29.75,6,2,11,0.36
2013-9-11,63,60,58,62,60,58,100,100,96,30.03,29.96,13,5,18,2.15
2013-9-12,61,60,58,61,60,58,100,100,100,30.09,30.00,16,5,17,3.75
2013-9-24,58,56,53,43,41,39,63,57,54,29.70,29.65,3,1,4,0.00
2013-9-25,75,61,47,56,45,36,73,57,37,29.65,29.24,6,2,9,0.00
2013-9-26,64,56,47,52,47,41,87,72,53,29.57,29.34,8,2,15,0.00
2013-9-27,54,47,40,52,46,40,100,98,82,29.92,29.54,9,4,14,0.30
2013-9-28,66,52,38,46,36,26,100,56,35,30.08,29.92,24,5,32,0.01
2013-9-29,73,60,47,50,38,30,64,46,25,29.99,29.70,21,4,37,0.00
2013-9-30,80,69,58,55,42,33,55,37,27,29.70,29.49,19,5,36,0.00
2013-10-1,70,62,54,53,44,36,71,54,30,29.81,29.61,11,2,18,0.00
2013-10-2,73,60,49,51,45,38,79,60,38,29.79,29.67,9,2,12,0.00
2013-10-3,58,50,41,50,44,38,100,82,66,29.72,29.59,12,2,13,0.13
2013-10-4,46,38,31,46,37,29,100,97,87,30.18,29.66,12,2,18,0.74
2013-10-5,62,45,30,34,28,17,95,57,26,30.24,30.11,14,3,20,0.00
2013-10-6,67,53,39,45,34,18,69,49,29,30.16,30.07,8,2,10,0.00
2013-10-7,74,58,42,50,40,33,76,54,31,30.06,29.72,9,2,16,0.00
2013-10-8,76,63,55,51,40,31,64,45,27,29.72,29.48,14,2,19,0.00
2013-10-9,61,54,49,48,42,35,84,65,52,29.80,29.56,10,3,13,0.00
2013-10-10,56,50,43,51,44,33,98,81,50,29.79,29.39,21,3,28,0.01
2013-10-11,59,54,44,42,34,31,86,49,42,29.90,29.25,42,12,64,0.00
2013-10-12,52,45,41,44,41,38,94,84,70,30.08,29.90,6,2,9,0.00
2013-10-13,58,48,38,49,42,35,91,81,66,30.09,29.77,5,1,9,0.00
2013-10-14,50,46,40,45,40,35,89,80,58,30.09,29.70,14,3,30,0.00
2013-10-15,42,38,35,35,32,29,88,78,69,30.27,30.09,13,2,13,0.00
2013-10-16,52,39,28,38,31,25,96,75,52,30.22,30.02,7,1,12,0.00
2013-10-17,44,40,34,36,32,26,92,75,59,30.10,30.01,9,2,13,0.00
2013-10-18,45,35,31,39,32,29,100,90,65,30.22,30.06,7,2,13,0.21
2013-10-19,62,52,31,39,30,25,89,44,33,30.15,29.77,21,6,25,0.01
2013-10-20,56,43,33,39,33,27,100,74,36,30.08,29.73,15,3,24,0.11
2013-10-21,59,45,30,39,33,29,99,68,38,30.22,30.08,16,3,26,0.13
2013-10-22,62,52,38,41,36,30,82,55,39,30.11,29.98,15,3,21,0.00
2013-10-23,62,51,42,42,36,29,77,58,44,30.10,29.98,8,2,12,0.00
2013-10-24,52,43,34,43,38,32,95,83,67,30.23,30.11,7,1,9,0.00
2013-10-25,68,51,36,48,38,33,96,66,40,30.20,30.02,10,2,19,0.00
2013-10-26,61,50,40,43,37,32,80,63,47,30.22,30.02,5,1,9,0.00
2013-10-27,68,57,43,36,32,28,69,41,29,30.02,29.65,17,5,26,0.00
2013-10-28,53,41,31,35,33,30,100,78,43,30.04,29.68,9,3,18,0.05
2013-10-29,36,33,31,35,33,31,100,100,97,30.08,29.96,4,1,17,0.01
2013-10-30,43,35,27,40,34,24,100,94,47,29.97,29.86,9,2,18,0.26
2013-10-31,52,46,33,31,26,21,87,48,37,29.88,29.74,34,12,48,0.00
2013-11-1,51,42,34,37,31,26,85,66,50,30.21,29.82,9,3,16,0.00
2013-11-2,63,44,30,40,28,21,79,56,27,30.21,29.70,9,1,11,0.00
2013-11-3,66,52,36,33,28,21,77,43,23,29.70,29.38,26,7,35,0.00
2013-11-4,40,34,28,32,25,20,100,71,49,29.99,29.66,13,4,18,0.00
2013-11-5,45,34,28,27,18,6,86,57,28,30.19,29.95,21,6,28,0.00
2013-11-6,51,42,27,25,20,7,57,41,33,30.30,30.16,20,8,35,0.00
2013-11-7,51,42,30,32,26,21,69,54,39,30.34,29.95,11,2,20,0.00
2013-11-8,64,56,42,31,27,19,54,33,24,29.95,29.67,21,8,46,0.00
2013-11-9,58,47,37,39,33,27,79,59,33,30.16,29.81,23,2,32,0.00
2013-11-10,67,50,35,39,32,29,80,54,27,30.20,30.07,11,1,17,0.00
2013-11-11,63,45,30,39,31,26,95,62,31,30.58,30.07,13,3,18,0.00
2013-11-12,56,41,28,40,33,27,97,75,53,30.61,30.37,6,0,9,0.00
2013-11-13,64,54,36,37,27,19,78,35,25,30.36,29.85,16,3,22,0.00
2013-11-14,56,48,39,39,32,24,73,56,34,29.91,29.64,10,2,19,0.00
2013-11-15,60,46,34,31,26,21,85,49,24,29.64,29.37,22,3,28,0.00
2013-11-16,54,45,39,33,26,18,72,48,32,29.45,29.18,35,6,52,0.00
2013-11-17,57,43,33,31,24,20,82,49,28,30.02,29.43,22,5,45,0.00
2013-11-18,60,44,28,28,21,16,68,43,23,30.12,29.96,9,2,13,0.00
2013-11-19,58,51,43,37,26,14,63,39,24,29.96,29.61,20,5,28,0.00
2013-11-20,56,48,29,36,31,25,91,54,41,29.93,29.62,16,3,29,0.00
2013-11-21,28,16,11,26,15,10,98,96,93,30.82,29.95,5,1,9,0.00
2013-11-22,35,24,15,33,23,14,99,92,73,30.82,30.69,3,0,9,0.18
2013-11-23,34,28,22,27,23,21,97,85,67,30.76,30.44,5,0,8,0.05
2013-11-24,40,29,21,31,26,20,100,90,55,30.43,30.09,4,0,6,0.01
2013-11-25,44,36,30,31,27,21,90,71,41,30.35,30.14,15,1,18,0.00
2013-11-26,49,37,29,29,25,22,84,64,42,30.45,30.27,6,1,12,0.00
2013-11-27,62,43,28,35,26,22,77,54,28,30.26,30.02,8,1,14,0.00
2013-11-28,44,36,29,31,28,24,86,73,58,30.18,30.10,6,0,8,0.00
2013-11-29,60,49,33,29,26,22,82,44,28,30.15,30.05,23,7,30,0.00
2013-11-30,56,49,38,31,24,19,53,38,31,30.06,29.98,14,3,24,0.00
2013-12-1,54,47,36,30,26,21,62,45,35,30.06,29.76,31,8,39,0.00
2013-12-2,55,51,46,30,28,25,48,42,36,29.77,29.36,53,11,53,0.00
2013-12-3,52,36,10,33,23,9,96,64,37,29.75,29.29,37,8,39,0.00
2013-12-4,13,7,1,11,5,-1,95,93,90,30.42,29.76,3,0,6,0.00
2013-12-5,9,0,-9,7,-2,-11,94,89,82,30.56,30.40,4,0,5,0.02
2013-12-6,10,0,-6,7,-2,-8,100,89,83,30.67,30.55,3,0,4,0.00
2013-12-7,11,2,-5,8,0,-7,100,90,83,30.64,30.18,0,0,0,0.00
2013-12-8,19,7,0,15,6,-2,94,92,83,30.39,30.11,5,0,6,0.00
2013-12-9,23,11,-3,14,3,-5,94,75,41,30.44,30.33,34,5,39,0.00
2013-12-10,40,33,23,18,14,3,73,46,39,30.41,29.94,49,14,67,0.00
2013-12-11,33,22,14,19,15,11,93,77,40,30.53,30.32,5,1,7,0.00
2013-12-12,52,36,24,30,18,8,67,49,34,30.50,29.96,4,1,7,0.01
2013-12-13,48,36,28,26,20,15,71,54,32,30.18,29.86,9,1,12,0.00
2013-12-14,46,34,23,23,20,18,81,58,36,30.31,30.18,12,2,17,0.00
2013-12-15,56,48,34,26,22,19,58,38,29,30.18,29.97,35,13,51,0.00
2013-12-16,58,53,45,25,22,17,38,30,24,30.09,29.89,41,11,55,0.00
2013-12-17,59,50,35,30,23,18,53,36,25,30.20,29.95,18,4,32,0.00
2013-12-18,65,58,52,26,22,19,33,25,20,29.93,29.50,22,7,32,0.00
2013-12-19,53,35,16,29,24,16,97,67,34,29.88,29.41,12,3,16,0.00
2013-12-20,24,19,16,24,19,16,100,98,97,29.91,29.83,5,1,8,0.00
2013-12-21,30,23,14,27,22,13,100,95,79,30.07,29.75,3,0,7,0.01
2013-12-22,37,25,15,26,20,14,99,85,49,30.39,30.06,16,2,23,0.08
2013-12-23,47,27,15,29,22,14,100,85,48,30.44,30.19,23,3,36,0.01
2013-12-24,49,41,24,34,23,11,70,49,34,30.24,29.97,54,12,76,0.01
2013-12-25,46,33,22,19,14,11,70,49,26,30.45,30.23,20,2,35,0.00
2013-12-26,54,42,32,21,17,11,59,37,26,30.30,30.18,31,5,43,0.00
2013-12-27,58,43,32,30,25,18,63,50,33,30.27,30.00,5,0,7,0.00
2013-12-28,55,38,20,31,25,19,96,61,35,30.22,29.79,14,3,17,0.00
2013-12-29,41,26,12,27,18,11,97,74,35,30.31,30.03,26,3,43,0.05
2013-12-30,47,40,25,21,18,15,67,42,33,30.25,30.07,19,8,32,0.00
2013-12-31,52,48,44,28,25,20,47,41,37,30.06,29.81,26,12,41,0.00
2014-1-1,46,34,23,32,26,20,93,77,47,30.30,29.78,15,3,25,0.00
2014-1-2,46,29,19,27,22,17,96,76,46,30.39,30.11,17,1,21,0.00